Stündliche Wetter Kyzylsharyk

Heute, 16 Mai, Sonntag

Zeit Temperatur Niederschläge Wind Luftdruck Luftfeuchtigkeit
00:00 +10°C° 0 mm 2 m/S 705 mmHg 53%
01:00 +10°C° 0 mm 2 m/S 705 mmHg 56%
02:00 +10°C° 0 mm 2 m/S 704 mmHg 58%
03:00 +10°C° 0 mm 2 m/S 704 mmHg 60%
04:00 +10°C° 0 mm 2 m/S 704 mmHg 62%
05:00 +11°C° 0 mm 1 m/S 704 mmHg 64%
06:00 +12°C° 0 mm 1 m/S 705 mmHg 60%
07:00 +14°C° 0 mm 1 m/S 705 mmHg 56%
08:00 +15°C° 0 mm 1 m/S 705 mmHg 51%
09:00 +18°C° 0 mm 1 m/S 705 mmHg 48%
10:00 +18°C° 0 mm 2 m/S 705 mmHg 45%
11:00 +19°C° 0 mm 2 m/S 705 mmHg 42%
12:00 +19°C° 0.1 mm 2 m/S 705 mmHg 40%
13:00 +20°C° 0.1 mm 2 m/S 705 mmHg 39%
14:00 +21°C° 0.1 mm 3 m/S 704 mmHg 38%
15:00 +20°C° 0.2 mm 3 m/S 705 mmHg 41%
16:00 +20°C° 0.2 mm 4 m/S 705 mmHg 43%
17:00 +19°C° 0.2 mm 4 m/S 705 mmHg 46%
18:00 +18°C° 0.1 mm 4 m/S 705 mmHg 48%
19:00 +17°C° 0.1 mm 3 m/S 705 mmHg 50%
20:00 +16°C° 0.1 mm 3 m/S 705 mmHg 52%
21:00 +16°C° 0 mm 3 m/S 705 mmHg 52%
22:00 +14°C° 0 mm 3 m/S 705 mmHg 51%
23:00 +14°C° 0 mm 3 m/S 705 mmHg 50%

Morgen, 17 Mai, Montag

Zeit Temperatur Niederschläge Wind Luftdruck Luftfeuchtigkeit
00:00 +15°C° 0 mm 2 m/S 704 mmHg 50%
01:00 +14°C° 0 mm 2 m/S 704 mmHg 49%
02:00 +14°C° 0 mm 2 m/S 704 mmHg 49%
03:00 +14°C° 0 mm 2 m/S 704 mmHg 49%
04:00 +14°C° 0 mm 2 m/S 704 mmHg 49%
05:00 +14°C° 0 mm 2 m/S 704 mmHg 49%
06:00 +16°C° 0 mm 2 m/S 704 mmHg 45%
07:00 +18°C° 0 mm 2 m/S 705 mmHg 41%
08:00 +20°C° 0 mm 2 m/S 705 mmHg 37%
09:00 +21°C° 0 mm 2 m/S 705 mmHg 34%
10:00 +23°C° 0 mm 2 m/S 705 mmHg 32%
11:00 +24°C° 0 mm 3 m/S 705 mmHg 30%
12:00 +25°C° 0 mm 3 m/S 705 mmHg 29%
13:00 +26°C° 0 mm 3 m/S 704 mmHg 28%
14:00 +26°C° 0 mm 2 m/S 704 mmHg 27%
15:00 +26°C° 0 mm 2 m/S 704 mmHg 27%
16:00 +26°C° 0 mm 2 m/S 704 mmHg 28%
17:00 +26°C° 0 mm 2 m/S 704 mmHg 29%
18:00 +24°C° 0 mm 2 m/S 703 mmHg 33%
19:00 +21°C° 0 mm 2 m/S 703 mmHg 38%
20:00 +19°C° 0 mm 2 m/S 703 mmHg 43%
21:00 +19°C° 0 mm 2 m/S 703 mmHg 43%
22:00 +18°C° 0 mm 2 m/S 703 mmHg 42%
23:00 +18°C° 0 mm 2 m/S 703 mmHg 42%

übermorgen, 18 Mai, Dienstag

Zeit Temperatur Niederschläge Wind Luftdruck Luftfeuchtigkeit
00:00 +17°C° 0 mm 2 m/S 702 mmHg 43%
01:00 +17°C° 0 mm 2 m/S 702 mmHg 43%
02:00 +17°C° 0 mm 2 m/S 701 mmHg 44%
03:00 +17°C° 0 mm 2 m/S 701 mmHg 44%
04:00 +16°C° 0 mm 2 m/S 701 mmHg 44%
05:00 +16°C° 0 mm 3 m/S 701 mmHg 44%
06:00 +18°C° 0 mm 3 m/S 701 mmHg 41%
07:00 +20°C° 0 mm 3 m/S 701 mmHg 37%
08:00 +22°C° 0 mm 4 m/S 701 mmHg 34%
09:00 +25°C° 0 mm 4 m/S 701 mmHg 31%
10:00 +26°C° 0 mm 4 m/S 701 mmHg 28%
11:00 +27°C° 0 mm 4 m/S 701 mmHg 25%
12:00 +28°C° 0 mm 4 m/S 701 mmHg 24%
13:00 +28°C° 0 mm 3 m/S 700 mmHg 23%
14:00 +29°C° 0 mm 3 m/S 700 mmHg 22%
15:00 +29°C° 0 mm 3 m/S 700 mmHg 23%
16:00 +28°C° 0 mm 2 m/S 700 mmHg 23%
17:00 +28°C° 0 mm 2 m/S 699 mmHg 24%
18:00 +26°C° 0 mm 2 m/S 699 mmHg 29%
19:00 +24°C° 0 mm 2 m/S 699 mmHg 34%
20:00 +21°C° 0 mm 3 m/S 699 mmHg 39%
21:00 +21°C° 0 mm 3 m/S 699 mmHg 39%
22:00 +20°C° 0 mm 3 m/S 699 mmHg 40%
23:00 +20°C° 0 mm 2 m/S 698 mmHg 40%

19 Mai, Mittwoch

Zeit Temperatur Niederschläge Wind Luftdruck Luftfeuchtigkeit
00:00 +19°C° 0 mm 2 m/S 698 mmHg 41%
01:00 +19°C° 0 mm 2 m/S 698 mmHg 41%
02:00 +18°C° 0 mm 2 m/S 698 mmHg 42%
03:00 +18°C° 0 mm 2 m/S 698 mmHg 43%
04:00 +18°C° 0 mm 2 m/S 698 mmHg 45%
05:00 +18°C° 0 mm 2 m/S 698 mmHg 46%
06:00 +21°C° 0 mm 1 m/S 698 mmHg 42%
07:00 +23°C° 0 mm 1 m/S 698 mmHg 38%
08:00 +25°C° 0 mm 1 m/S 698 mmHg 34%
09:00 +26°C° 0 mm 1 m/S 698 mmHg 32%
10:00 +27°C° 0 mm 2 m/S 698 mmHg 31%
11:00 +28°C° 0 mm 2 m/S 698 mmHg 30%
12:00 +28°C° 0.2 mm 3 m/S 698 mmHg 31%
13:00 +28°C° 0.2 mm 3 m/S 698 mmHg 32%
14:00 +28°C° 0.2 mm 3 m/S 697 mmHg 34%
15:00 +27°C° 0.1 mm 3 m/S 697 mmHg 34%
16:00 +27°C° 0.1 mm 3 m/S 697 mmHg 34%
17:00 +27°C° 0.1 mm 3 m/S 697 mmHg 35%
18:00 +26°C° 0 mm 3 m/S 697 mmHg 37%
19:00 +25°C° 0 mm 3 m/S 697 mmHg 39%
20:00 +24°C° 0 mm 3 m/S 697 mmHg 41%
21:00 +22°C° 0 mm 4 m/S 697 mmHg 42%
22:00 +21°C° 0 mm 4 m/S 697 mmHg 42%
23:00 +20°C° 0 mm 4 m/S 697 mmHg 43%

20 Mai, Donnerstag

Zeit Temperatur Niederschläge Wind Luftdruck Luftfeuchtigkeit
00:00 +20°C° 0 mm 4 m/S 697 mmHg 44%
01:00 +20°C° 0 mm 4 m/S 698 mmHg 46%
02:00 +19°C° 0 mm 5 m/S 698 mmHg 48%
03:00 +19°C° 0 mm 4 m/S 698 mmHg 50%
04:00 +19°C° 0 mm 4 m/S 698 mmHg 52%
05:00 +18°C° 0 mm 3 m/S 698 mmHg 54%
06:00 +20°C° 0 mm 3 m/S 698 mmHg 48%
07:00 +22°C° 0 mm 4 m/S 699 mmHg 43%
08:00 +25°C° 0 mm 4 m/S 699 mmHg 38%
09:00 +25°C° 0 mm 5 m/S 699 mmHg 37%
10:00 +26°C° 0 mm 6 m/S 699 mmHg 36%
11:00 +27°C° 0 mm 7 m/S 699 mmHg 35%
12:00 +27°C° 0.1 mm 7 m/S 699 mmHg 35%
13:00 +27°C° 0.1 mm 8 m/S 699 mmHg 36%
14:00 +27°C° 0.1 mm 8 m/S 699 mmHg 37%
15:00 +26°C° 0.1 mm 8 m/S 700 mmHg 40%
16:00 +24°C° 0.1 mm 7 m/S 700 mmHg 44%
17:00 +23°C° 0.1 mm 7 m/S 701 mmHg 48%
18:00 +21°C° 0 mm 6 m/S 701 mmHg 53%
19:00 +20°C° 0 mm 5 m/S 701 mmHg 58%
20:00 +19°C° 0 mm 5 m/S 702 mmHg 63%
21:00 +17°C° 0 mm 5 m/S 702 mmHg 64%
22:00 +16°C° 0 mm 5 m/S 701 mmHg 65%
23:00 +16°C° 0 mm 5 m/S 701 mmHg 66%

21 Mai, Freitag

Zeit Temperatur Niederschläge Wind Luftdruck Luftfeuchtigkeit
00:00 +15°C° 0 mm 5 m/S 701 mmHg 65%
01:00 +15°C° 0 mm 5 m/S 701 mmHg 64%
02:00 +14°C° 0 mm 5 m/S 701 mmHg 63%
03:00 +14°C° 0 mm 4 m/S 701 mmHg 63%
04:00 +14°C° 0 mm 4 m/S 701 mmHg 62%
05:00 +14°C° 0 mm 4 m/S 702 mmHg 62%
06:00 +15°C° 0 mm 4 m/S 702 mmHg 57%
07:00 +17°C° 0 mm 4 m/S 703 mmHg 53%
08:00 +18°C° 0 mm 4 m/S 703 mmHg 49%
09:00 +20°C° 0 mm 4 m/S 703 mmHg 46%
10:00 +21°C° 0 mm 4 m/S 703 mmHg 42%
11:00 +22°C° 0 mm 4 m/S 703 mmHg 39%
12:00 +23°C° 0 mm 4 m/S 703 mmHg 36%
13:00 +25°C° 0 mm 4 m/S 702 mmHg 33%
14:00 +26°C° 0 mm 4 m/S 702 mmHg 30%
15:00 +25°C° 0 mm 4 m/S 702 mmHg 31%
16:00 +25°C° 0 mm 4 m/S 702 mmHg 31%
17:00 +25°C° 0 mm 4 m/S 702 mmHg 32%
18:00 +22°C° 0 mm 3 m/S 702 mmHg 38%
19:00 +20°C° 0 mm 3 m/S 702 mmHg 45%
20:00 +19°C° 0 mm 2 m/S 702 mmHg 52%
21:00 +18°C° 0 mm 2 m/S 702 mmHg 52%
22:00 +17°C° 0 mm 2 m/S 702 mmHg 53%
23:00 +17°C° 0 mm 2 m/S 702 mmHg 54%
Mehr zeigen

Wir brauchen deine Erlaubnis

Meteoprog und unser Service Anbieter werden persönliche Daten aufbewahren, so wie Cookies, Geräte Bezeichnung oder ähnliche Technologien von deinem Gerät und Prozess, so wie Persönliche Daten Inhalte und Werbungen, genauso wie social Media und den Verkehr zu analysieren.

  • Aufbewahrung und/oder Zugang zu deiner Geräte Informationen.

    Cookies, Geräte Bezeichnung oder andere Informationen, können aufbewahrt oder Zugang zu deinem Gerät erhalten, für den Grund, der oben angegeben wird.

  • Personalisierte Werbung und Inhalte, Messungen, Einblick in das Publikum und Produkt Entwicklung.

    Werbungen und Inhalte können personalisiert werden, basierend auf ein Profil. Mehr Daten können besser personalisierte Werbungen und Inhalte hinzufügen. Werbung und Inhalte können gezeigt und gemessen werden. Einblicke über das Publikum, welche die Werbung gesehen haben und den Inhalt, können abgeleitet werden. So wie Daten können genutzt werden, um es zu verbessern oder die Benutzer Erfahrung zu verbessern das System und die Software.

Wenn du “Ich stimme zu” klickst, erlaubst du uns, die Cookies zu benutzen die Geräte Bezeichnung, den Web oder ähnliche Technologien zu benutzen. Deine Settings, können in deinem Gerät bei deinem Browser geändert werden.

Für den bestimmten Zweck, berechtigten Interessen beruhen darauf, mehr als auf den Inhalt. Du kannst mehr darüber in unseren Privaten und Cookie Politik lesen.